Flag for Germany Weather past 2 weeks in Vechta, Lower Saxony, Germany

Now
63 °F

Clear.


Feels Like: 63 °F
Forecast: 62 / 78 °F
Wind: 6 mph from West

Location: Bremen Airport

Current Time: Jul 26, 2014 at 1:03:54 AM

Latest Report: Jul 26, 2014 at 12:20 AM


Visibility: 10 mi

Pressure: 29.92 "Hg

Humidity: 94%

Dew point: 61 °F

Location of VechtaLocation

Historic Weather in Vechta — Graph

°F

Vechta temperature yesterday

Maximum temperature yesterday: 72 °F (at 1:50 PM)
Minimum temperature yesterday: 63 °F (at 12:20 AM)
Average temperature yesterday: 66 °F

Past Weeks' High & Low Weather Summary

 TemperatureHumidityPressure
High90 °F (Jul 19, 1:50 PM)100% (Jul 13, 9:20 PM)30.18 "Hg (Jul 13, 9:20 PM)
Low54 °F (Jul 17, 4:50 AM)27% (Jul 19, 4:20 PM)29.68 "Hg (Jul 13, 2:20 PM)
Average70 °F70%29.97 "Hg
* Reported Jul 10 11:20 PM — Jul 25 11:50 PM, Vechta, Weather by CustomWeather, © 2014

Note: Actual official high and low records may vary slightly from our data, if they occured in-between our weather recording intervals... More about our weather records

Advertising

Vechta weather history for previous 24 hours

 ConditionsComfort  
Time TempWeatherWind HumidityBarometerVisibility
11:50 PM
Jul 25
64 °FClear.5 mph94%29.92 "Hg10 mi
11:20 PM64 °FPassing clouds.6 mph94%29.92 "HgN/A
10:50 PM66 °FClear.6 mph83%29.92 "Hg10 mi
10:20 PM66 °FBroken clouds.7 mph88%29.92 "HgN/A
9:50 PM66 °FPartly sunny.6 mph94%29.92 "Hg6 mi
9:20 PM66 °FLight rain. Broken clouds.5 mph94%29.92 "Hg5 mi
8:50 PM68 °FThundershowers. Broken clouds.7 mph88%29.95 "Hg5 mi
8:20 PM66 °FStrong thunderstorms. Partly sunny.10 mph94%29.95 "Hg2 mi
7:50 PM70 °FScattered showers. Partly sunny.3 mph88%29.95 "HgN/A
7:20 PM70 °FBroken clouds.5 mph88%29.92 "HgN/A
6:50 PM72 °FSunny.3 mph78%29.95 "Hg10 mi
6:20 PM72 °FBroken clouds.3 mph78%29.95 "HgN/A
5:50 PM72 °FBroken clouds.5 mph78%29.95 "HgN/A
5:20 PM72 °FBroken clouds.5 mph78%29.95 "HgN/A
4:50 PM72 °FBroken clouds.5 mph78%29.95 "HgN/A
4:20 PM72 °FBroken clouds.6 mph78%29.95 "HgN/A
3:50 PM72 °FBroken clouds.7 mph78%29.95 "HgN/A
3:20 PM70 °FPartly sunny.8 mph83%29.98 "HgN/A
2:20 PM70 °FPartly sunny.9 mph83%29.98 "HgN/A
1:50 PM72 °FPartly sunny.10 mph83%29.98 "HgN/A
1:20 PM70 °FLight rain. Partly sunny.7 mph83%29.98 "HgN/A
12:50 PM68 °FLight rain. Partly sunny.6 mph88%29.98 "HgN/A
12:20 PM68 °FLight rain. Partly sunny.7 mph88%29.98 "HgN/A
11:50 AM66 °FLight rain. Partly sunny.7 mph94%29.98 "HgN/A
11:20 AM66 °FPartly sunny.10 mph88%29.98 "HgN/A
10:50 AM64 °FLight rain. Partly sunny.7 mph94%29.98 "HgN/A
10:20 AM64 °FLight rain. Partly sunny.8 mph94%30.01 "HgN/A
9:50 AM64 °FLight rain. More clouds than sun.3 mph88%30.01 "HgN/A
9:20 AM64 °FLight rain. Overcast.5 mph88%30.01 "HgN/A
8:50 AM63 °FLight rain. Overcast.6 mph94%30.01 "HgN/A
8:20 AM63 °FRain. More clouds than sun.6 mph94%30.01 "Hg5 mi
7:50 AM63 °FLight rain. More clouds than sun.5 mph88%30.01 "HgN/A
7:20 AM63 °FLight rain. Overcast.5 mph88%30.01 "HgN/A
6:50 AM63 °FLight rain. Overcast.5 mph88%30.01 "HgN/A
6:20 AM63 °FLight rain. Overcast.5 mph88%30.01 "HgN/A
5:50 AM63 °FLight rain. Overcast.3 mph88%30.04 "HgN/A
5:20 AM63 °FLight rain. Overcast.5 mph88%30.04 "HgN/A
4:50 AM63 °FOvercast.7 mph88%30.01 "HgN/A
4:20 AM63 °FLight rain. Overcast.7 mph88%30.01 "HgN/A
3:50 AM63 °FRain. Overcast.8 mph88%30.01 "HgN/A
3:20 AM63 °FRain. Overcast.3 mph88%30.04 "HgN/A
2:50 AM63 °FLight rain. Overcast.3 mph88%30.04 "HgN/A
2:20 AM63 °FLight rain. Overcast.5 mph88%30.04 "HgN/A
1:50 AM63 °FLight rain. Overcast.6 mph88%30.04 "HgN/A
1:20 AM63 °FLight rain. Overcast.5 mph94%30.04 "HgN/A
Weather by CustomWeather, © 2014

See weather overviewHow to use our weather pages